Location: Slanting_Bridge
(35.6330°N, 80.9830°W)
Time: 18:26:30
(UTC-04:00)

Amateur Radio Satellites - All Passes

Search period start: 22 October 2014 17:56
Search period end: 23 October 2014 17:56
Location: Slanting_Bridge, 35.6330°N, 80.9830°W

Satellite Date Start Highest point End Downlink Frequencies (MHz)
Time Altitude Azimuth
JAS-2 22 Oct 18:05:29 18:11:08 72° 74° (ENE) 18:17:34 435.800 - 435.900 CW/SSB, 435.910 FM
Hamsat 22 Oct 18:06:51 18:10:52 44° 74° (ENE) 18:14:52 145.90 MHz
Saudisat 1A 22 Oct 18:22:35 18:26:57 60° 243° (WSW) 18:31:16 436.775 MHz
OPAL 22 Oct 18:25:49 18:30:42 56° 103° (ESE) 18:35:32 ?
Uosat F 22 Oct 18:32:20 18:34:22 12° 268° (W) 18:36:24 435.120 FM
AO-40 22 Oct 19:00:29 01:12:05 50° 183° (S) 06:02:38 Beacon 2401.320
SO-67 22 Oct 19:30:53 19:34:11 48° 76° (ENE) 19:37:31 435.3500 MHz FM
ISS 22 Oct 19:43:04 19:44:41 13° 25° (NNE) 19:46:18 145.800 FM
Hamsat 22 Oct 19:45:14 19:47:00 12° 268° (W) 19:48:45 145.90 MHz
JAS-2 22 Oct 19:54:25 19:57:03 13° 273° (W) 19:59:49 435.800 - 435.900 CW/SSB, 435.910 FM
STRAND 1 22 Oct 20:06:04 20:11:12 65° 102° (ESE) 20:16:17 ?
OPAL 22 Oct 20:06:17 20:09:05 15° 298° (WNW) 20:11:51 ?
KITSAT 1 22 Oct 20:06:18 20:07:34 10° 30° (NNE) 20:08:50 435.175 FM
HO-68 22 Oct 20:46:52 20:53:22 40° 66° (ENE) 20:59:54 435.675 MHz FM
UKube-1 22 Oct 21:07:41 21:09:37 13° 65° (ENE) 21:11:34 145.840 MHz, 145.915 MHz
ISS 22 Oct 21:18:29 21:21:49 85° 42° (NE) 21:25:09 145.800 FM
FUNcube-1 22 Oct 21:43:17 21:45:03 12° 65° (ENE) 21:46:49 145.950 - 145.970 MHz USB
STRAND 1 22 Oct 21:47:16 21:49:47 14° 297° (WNW) 21:52:18 ?
SO-50 22 Oct 21:49:12 21:51:35 13° 45° (NE) 21:53:58 436.795 FM
Oscar 11 22 Oct 21:49:12 21:53:03 32° 72° (ENE) 21:56:55 145.825 FM, Beacon 2401.500 USB
KITSAT 1 22 Oct 21:57:47 22:05:26 44° 54° (NE) 22:13:00 435.175 FM
ZACube-1 22 Oct 22:31:16 22:35:35 42° 73° (ENE) 22:39:53 437.345 MHz
HO-68 22 Oct 22:34:37 22:41:01 35° 262° (W) 22:47:28 435.675 MHz FM
UKube-1 22 Oct 22:41:07 22:45:20 50° 260° (W) 22:49:35 145.840 MHz, 145.915 MHz
RS-15 22 Oct 22:47:32 22:58:21 62° 113° (ESE) 23:09:00 29.354 - 29.394 USB, Beacon 29.352 USB
FUNcube-1 22 Oct 23:16:21 23:20:53 60° 260° (W) 23:25:24 145.950 - 145.970 MHz USB
Oscar 11 22 Oct 23:26:17 23:29:16 18° 266° (W) 23:32:15 145.825 FM, Beacon 2401.500 USB
UOSAT-12 22 Oct 23:26:25 23:27:48 11° 43° (NE) 23:29:10 437.025 FM, 437.400 FM
SO-50 22 Oct 23:27:50 23:32:43 81° 242° (WSW) 23:37:36 436.795 FM
KITSAT 1 22 Oct 23:53:23 00:00:40 39° 252° (WSW) 00:07:56 435.175 FM
ZACube-1 23 Oct 00:09:17 00:12:06 16° 267° (W) 00:14:56 437.345 MHz
MaSat-1 23 Oct 00:29:37 00:33:50 55° 111° (ESE) 00:37:43 437.345 MHz
RS-15 23 Oct 01:01:23 01:11:13 37° 314° (NW) 01:21:06 29.354 - 29.394 USB, Beacon 29.352 USB
UOSAT-12 23 Oct 01:03:56 01:08:39 86° 61° (ENE) 01:13:17 437.025 FM, 437.400 FM
MaSat-1 23 Oct 02:08:14 02:09:43 12° 303° (WNW) 02:11:09 437.345 MHz
Oscar 19 23 Oct 02:20:44 02:25:20 33° 97° (E) 02:29:54 437.125 CW, 437.150 USB
AO-27 23 Oct 02:34:02 02:37:27 17° 93° (E) 02:40:51 436.795 MHz FM
Oscar 16 23 Oct 03:05:44 03:10:52 83° 284° (WNW) 03:15:59 437.025 USB, Beacon 2401.1428
JAS-1B 23 Oct 03:06:32 03:13:16 76° 103° (ESE) 03:21:22 435.800 - 435.900 CW/SSB
AO-Echo 23 Oct 03:17:46 03:23:04 67° 101° (ESE) 03:28:20 ?
Uribyol 2 23 Oct 03:21:30 03:26:38 56° 101° (E) 03:31:42 436.500 FM
RS-15 23 Oct 03:23:33 03:28:17 13° 347° (NNW) 03:33:04 29.354 - 29.394 USB, Beacon 29.352 USB
PCSat 23 Oct 03:24:52 03:26:54 12° 102° (ESE) 03:28:57 145.825 MHz
ITAMSAT 1 23 Oct 03:26:57 03:32:07 60° 101° (E) 03:37:15 435.822 SSB
Gurwin Techsat 1B 23 Oct 03:34:37 03:39:29 36° 98° (E) 03:44:20 435.225 FM
TMSAT-1 23 Oct 03:47:16 03:52:06 35° 98° (E) 03:56:53 436.925 FM
Oscar 19 23 Oct 04:00:22 04:04:29 25° 292° (WNW) 04:08:35 437.125 CW, 437.150 USB
AO-27 23 Oct 04:12:09 04:17:11 48° 288° (WNW) 04:22:10 436.795 MHz FM
Sapphire 23 Oct 04:41:30 04:46:49 65° 113° (ESE) 04:52:11 437.095 MHz 1200 baud AX-25 AFSK
AO-Echo 23 Oct 04:58:27 05:01:12 14° 296° (WNW) 05:03:57 ?
JAS-1B 23 Oct 04:59:13 05:03:26 18° 296° (WNW) 05:08:05 435.800 - 435.900 CW/SSB
Uosat F 23 Oct 05:01:38 05:05:43 24° 96° (E) 05:09:45 435.120 FM
Uribyol 2 23 Oct 05:02:30 05:05:35 16° 296° (WNW) 05:08:39 436.500 FM
PCSat 23 Oct 05:04:13 05:09:36 73° 297° (WNW) 05:15:02 145.825 MHz
ITAMSAT 1 23 Oct 05:08:08 05:11:04 15° 296° (WNW) 05:13:59 435.822 SSB
Gurwin Techsat 1B 23 Oct 05:14:59 05:19:13 25° 293° (WNW) 05:23:28 435.225 FM
JAS-2 23 Oct 05:19:32 05:23:38 15° 89° (E) 05:27:42 435.800 - 435.900 CW/SSB, 435.910 FM
AO-7 23 Oct 05:27:14 05:35:26 59° 103° (ESE) 05:43:36 29.400 - 29.500 MHz
TMSAT-1 23 Oct 05:27:31 05:31:48 26° 292° (WNW) 05:36:05 436.925 FM
OPAL 23 Oct 05:37:39 05:42:48 74° 73° (ENE) 05:47:55 ?
RS-15 23 Oct 05:40:35 05:47:30 18° 26° (NNE) 05:54:31 29.354 - 29.394 USB, Beacon 29.352 USB
Sapphire 23 Oct 06:27:10 06:30:42 17° 311° (NW) 06:34:15 437.095 MHz 1200 baud AX-25 AFSK
Uosat F 23 Oct 06:39:59 06:44:29 33° 290° (WNW) 06:48:57 435.120 FM
PCSat 23 Oct 06:52:51 06:53:58 11° 316° (NW) 06:55:05 145.825 MHz
JAS-2 23 Oct 07:01:33 07:09:23 87° 104° (ESE) 07:17:12 435.800 - 435.900 CW/SSB, 435.910 FM
STRAND 1 23 Oct 07:19:00 07:24:04 69° 74° (ENE) 07:29:11 ?
OPAL 23 Oct 07:20:49 07:22:06 11° 267° (W) 07:23:22 ?
AO-7 23 Oct 07:20:53 07:27:40 29° 300° (WNW) 07:34:29 29.400 - 29.500 MHz
Hamsat 23 Oct 07:30:57 07:35:03 56° 285° (WNW) 07:39:10 145.90 MHz
RS-15 23 Oct 07:52:06 08:03:04 57° 54° (NE) 08:14:28 29.354 - 29.394 USB, Beacon 29.352 USB
Saudisat 1A 23 Oct 08:25:52 08:30:13 71° 118° (ESE) 08:34:36 436.775 MHz
SO-67 23 Oct 08:29:38 08:33:05 88° 281° (WNW) 08:36:31 435.3500 MHz FM
PANSAT 23 Oct 08:36:28 08:39:03 17° 165° (SSE) 08:41:38 not established
JAS-2 23 Oct 08:48:28 08:53:25 19° 300° (WNW) 08:58:24 435.800 - 435.900 CW/SSB, 435.910 FM
STRAND 1 23 Oct 09:02:05 09:03:41 11° 269° (W) 09:05:18 ?
HO-68 23 Oct 10:04:36 10:11:38 54° 101° (ESE) 10:18:36 435.675 MHz FM
RS-15 23 Oct 10:04:59 10:15:01 39° 253° (WSW) 10:25:28 29.354 - 29.394 USB, Beacon 29.352 USB
Saudisat 1A 23 Oct 10:08:20 10:10:15 13° 315° (NW) 10:12:11 436.775 MHz
PANSAT 23 Oct 10:15:26 10:18:42 27° 177° (S) 10:21:59 not established
MaSat-1 23 Oct 10:19:16 10:21:41 35° 63° (ENE) 10:23:56 437.345 MHz
UKube-1 23 Oct 10:32:21 10:36:18 32° 98° (E) 10:40:13 145.840 MHz, 145.915 MHz
FUNcube-1 23 Oct 11:08:57 11:12:44 31° 97° (E) 11:16:26 145.950 - 145.970 MHz USB
Oscar 11 23 Oct 11:15:12 11:19:30 80° 284° (WNW) 11:23:48 145.825 FM, Beacon 2401.500 USB
HO-68 23 Oct 11:53:07 11:58:53 27° 298° (WNW) 12:04:38 435.675 MHz FM
PANSAT 23 Oct 11:55:22 11:58:25 23° 190° (S) 12:01:27 not established
ZACube-1 23 Oct 11:59:43 12:03:55 60° 285° (WNW) 12:08:01 437.345 MHz
UKube-1 23 Oct 12:09:09 12:12:14 19° 292° (WNW) 12:15:18 145.840 MHz, 145.915 MHz
KITSAT 1 23 Oct 12:22:40 12:30:09 44° 109° (ESE) 12:37:39 435.175 FM
ISS 23 Oct 12:24:04 12:25:21 12° 127° (SE) 12:26:38 145.800 FM
Oscar 16 23 Oct 12:44:31 12:46:11 12° 62° (ENE) 12:47:50 437.025 USB, Beacon 2401.1428
FUNcube-1 23 Oct 12:45:58 12:48:52 18° 292° (WNW) 12:51:43 145.950 - 145.970 MHz USB
Sapphire 23 Oct 13:32:51 13:37:31 28° 55° (NE) 13:42:08 437.095 MHz 1200 baud AX-25 AFSK
Oscar 19 23 Oct 13:34:45 13:39:26 36° 71° (ENE) 13:44:07 437.125 CW, 437.150 USB
PANSAT 23 Oct 13:37:56 13:37:57 10° 202° (SSW) 13:37:58 not established
SO-50 23 Oct 13:39:53 13:44:18 67° 117° (ESE) 13:48:51 436.795 FM
AO-27 23 Oct 13:49:26 13:53:14 21° 66° (ENE) 13:57:03 436.795 MHz FM
JAS-1B 23 Oct 13:50:33 13:56:18 44° 71° (ENE) 14:01:40 435.800 - 435.900 CW/SSB
PCSat 23 Oct 13:55:13 14:00:27 47° 59° (ENE) 14:05:39 145.825 MHz
ISS 23 Oct 13:58:24 14:01:40 54° 321° (NW) 14:04:57 145.800 FM
Oscar 10/S400 23 Oct 14:08:33 14:28:08 46° 154° (SSE) 14:50:21 145.825 - 145.975 CW/USB, Beacon 145.810 USB
KITSAT 1 23 Oct 14:18:06 14:25:32 40° 307° (NW) 14:33:02 435.175 FM
Oscar 16 23 Oct 14:19:39 14:24:49 78° 257° (WSW) 14:30:00 437.025 USB, Beacon 2401.1428
AO-Echo 23 Oct 14:27:51 14:32:36 60° 74° (ENE) 14:37:31 ?
Uribyol 2 23 Oct 14:36:21 14:41:30 63° 74° (ENE) 14:46:40 436.500 FM
AO-7 23 Oct 14:37:33 14:39:47 11° 49° (NE) 14:42:01 29.400 - 29.500 MHz
ITAMSAT 1 23 Oct 14:41:58 14:47:07 67° 74° (ENE) 14:52:18 435.822 SSB
Gurwin Techsat 1B 23 Oct 14:52:48 14:57:46 43° 71° (ENE) 15:02:45 435.225 FM
TMSAT-1 23 Oct 15:05:07 15:10:02 41° 71° (ENE) 15:14:59 436.925 FM
UOSAT-12 23 Oct 15:12:07 15:16:34 52° 115° (ESE) 15:21:08 437.025 FM, 437.400 FM
Oscar 19 23 Oct 15:14:48 15:18:49 23° 265° (W) 15:22:50 437.125 CW, 437.150 USB
Sapphire 23 Oct 15:16:02 15:20:56 36° 251° (WSW) 15:25:49 437.095 MHz 1200 baud AX-25 AFSK
SO-50 23 Oct 15:22:58 15:25:20 14° 315° (NW) 15:27:45 436.795 FM
AO-27 23 Oct 15:27:30 15:32:24 42° 261° (W) 15:37:21 436.795 MHz FM
ISS 23 Oct 15:38:28 15:38:59 10° 338° (NNW) 15:39:30 145.800 FM
PCSat 23 Oct 15:39:36 15:43:27 20° 255° (WSW) 15:47:18 145.825 MHz
JAS-1B 23 Oct 15:42:45 15:47:09 20° 264° (W) 15:51:20 435.800 - 435.900 CW/SSB
AO-Echo 23 Oct 16:09:56 16:11:47 12° 269° (W) 16:13:40 ?
Uosat F 23 Oct 16:12:15 16:16:18 25° 68° (ENE) 16:20:23 435.120 FM
Uribyol 2 23 Oct 16:18:59 16:21:20 13° 268° (W) 16:23:42 436.500 FM
AO-7 23 Oct 16:22:47 16:30:52 61° 68° (ENE) 16:38:58 29.400 - 29.500 MHz
ITAMSAT 1 23 Oct 16:25:02 16:27:01 12° 269° (W) 16:29:00 435.822 SSB
Gurwin Techsat 1B 23 Oct 16:34:01 16:37:52 20° 266° (W) 16:41:44 435.225 FM
TMSAT-1 23 Oct 16:46:07 16:50:03 21° 266° (W) 16:54:02 436.925 FM
UOSAT-12 23 Oct 16:53:51 16:57:01 18° 312° (NW) 17:00:13 437.025 FM, 437.400 FM
Saudisat 1A 23 Oct 16:55:43 16:59:24 25° 52° (NE) 17:03:03 436.775 MHz
JAS-2 23 Oct 17:11:53 17:16:38 26° 64° (ENE) 17:21:51 435.800 - 435.900 CW/SSB, 435.910 FM
